Simultaneous Nadir Overpasses (SNOs) Predictions

Prediction of SNOs between GOES-16 and NOAA-19 Satellite Orbit:

Table of predicted SNOs for the next 14.0 days since TLE Epoch: 3/11/2023
Index Date Time (GOES-16) GOES-16 Lat,Lon NOAA-19 Lat,Lon Distance(km) Time Diff (sec)
1 03/11/2023 13:12:35 0.03, -75.21 -0.55, -72.65 291.62 80
2 03/14/2023 01:35:38 -0.03, -75.21 -0.56, -77.49 260.98 80
3 03/15/2023 01:20:59 -0.03, -75.21 0.10, -74.57 72.30 80
4 03/16/2023 01:09:01 -0.03, -75.21 0.77, -71.65 405.67 80
5 03/17/2023 13:43:48 0.04, -75.24 0.97, -79.36 469.85 80
6 03/18/2023 13:31:49 0.04, -75.25 0.34, -76.43 135.88 80
7 03/19/2023 13:17:10 0.04, -75.26 -0.36, -73.52 198.42 80
8 03/22/2023 01:40:14 -0.04, -75.28 -0.72, -78.37 351.66 80
9 03/23/2023 01:28:15 -0.04, -75.30 -0.09, -75.44 16.85 80
10 03/24/2023 01:13:36 -0.04, -75.31 0.60, -72.52 318.40 80
